Location: NJAA Observatory
(40.6819°N, 74.8979°W)
Time: 09:38:11
(UTC-04:00)

Iridium 56 - Visible Passes

Search period start: 04 July 2015 00:00
Search period end: 14 July 2015 00:00
Orbit: 776 x 779 km, 86.4° (Epoch: 03 July)

Date Brightness Start Highest point End Pass type
(mag) Time Alt. Az. Time Alt. Az. Time Alt. Az.
04 Jul 7.1 00:36:59 23° E 00:37:22 23° E 00:41:28 10° NNE visible
04 Jul 6.2 02:17:27 38° W 02:17:54 39° W 02:22:45 10° NNW visible
05 Jul 7.7 00:03:35 12° E 00:04:06 12° ENE 00:06:23 10° NE visible
05 Jul 5.4 01:44:04 72° WSW 01:44:15 73° W 01:49:29 10° N visible
06 Jul 5.7 01:10:39 61° E 01:10:45 61° E 01:15:55 10° N visible
06 Jul 7.5 02:51:08 15° W 02:52:03 15° WNW 02:54:55 10° NW visible
07 Jul 6.6 00:37:15 33° E 00:37:21 33° E 00:42:01 10° NNE visible
07 Jul 6.8 02:17:43 27° W 02:18:08 27° WNW 02:22:32 10° NNW visible
08 Jul 7.3 00:03:50 18° E 00:04:02 18° E 00:07:37 10° NE visible
08 Jul 5.9 01:44:18 50° W 01:44:24 50° W 01:49:28 10° N visible
09 Jul 5.4 01:10:53 88° NE 01:10:53 88° NE 01:16:05 10° N visible
09 Jul 7.8 02:51:42 10° WNW 02:52:28 10° WNW 02:52:51 10° WNW visible
10 Jul 6.0 00:37:27 48° E 00:37:27 48° E 00:42:23 10° NNE visible
10 Jul 7.3 02:17:55 19° W 02:18:27 19° WNW 02:22:04 10° NNW visible
11 Jul 6.9 00:04:01 26° E 00:04:01 26° E 00:08:19 10° NNE visible
11 Jul 6.5 01:44:29 34° W 01:44:36 34° W 01:49:20 10° NNW visible
11 Jul 7.5 23:30:34 14° E 23:30:43 14° E 23:33:33 10° NE visible
12 Jul 5.7 01:11:02 64° WNW 01:11:02 64° WNW 01:16:08 10° N visible
13 Jul 5.6 00:37:35 69° ENE 00:37:35 69° ENE 00:42:37 10° N visible
13 Jul 7.7 02:18:04 13° W 02:18:49 13° WNW 02:21:09 10° NW visible
